Regional Weather Roundup
Issued by NWS

Home | Current Version | Previous Version | Graphics & Text | Print | Product List | Glossary On
Versions: 1 2 3 4 5 6 7 8 9 10 11 12 13 14 15 16 17 18 19 20 21 22 23 24 25 26 27 28 29 30 31 32 33 34 35 36 37 38 39 40 41 42 43 44 45 46 47 48 49 50
000
ASUS43 KMPX 190110
RWRMN
WEATHER ROUNDUP FOR MINNESOTA
NATIONAL WEATHER SERVICE TWIN CITIES/CHANHASSEN MN
700 PM CST THU DEC 18 2014


NOTE: "FAIR" INDICATES FEW OR NO CLOUDS BELOW 12,000 FEET WITH NO
SIGNIFICANT WEATHER AND/OR OBSTRUCTIONS TO VISIBILITY. N/A MEANS
CURRENT SKY AND/OR WEATHER CONDITIONS ARE NOT AVAILABLE.

MNZ060>063-068>070-190200-
   Twin Cities Metro

CITY           SKY/WX    TMP DP  RH WIND       PRES   REMARKS
TWIN CITIES    CLOUDY    20  15  81 SE3       30.27S
ST PAUL        CLOUDY    21  17  84 S3        30.29S FOG
CRYSTAL        CLOUDY    22  15  75 E5        30.25F WCI  16
BLAINE           N/A     23  18  80 SE6       30.26  WCI  16
LAKEVILLE      CLOUDY    19  16  86 E3        30.26S
EDEN PRAIRIE   CLOUDY    21  15  78 E6        30.25F WCI  13
SOUTH ST PAUL  CLOUDY    22  16  78 CALM      30.28R
LAKE ELMO      CLOUDY    23  19  86 CALM      30.27S
$$
MNZ001>005-007-008-013>017-022>024-027-028-190200-
   Northwest Minnesota

CITY           SKY/WX    TMP DP  RH WIND       PRES   REMARKS
BEMIDJI        CLOUDY    18  14  86 SE9       30.17F WCI   6
HALLOCK        PTCLDY    19  16  86 S10       30.16S WCI   8
ROSEAU         MOCLDY    18  12  79 SE7       30.18S WCI   8
WARROAD        PTCLDY    12  10  92 SE5       30.19F WCI   4
THIEF RVR FALL CLOUDY    19  16  86 SE7       30.17S WCI  10
CROOKSTON      CLOUDY    19  16  86 S9        30.19S WCI   9
FOSSTON        CLOUDY    18  16  93 SE7       30.17S WCI   8
DETROIT LAKES  CLOUDY    21  18  86 S10       30.17F WCI  10
MOORHEAD       CLOUDY    21  19  93 S10       30.19F WCI  10
PARK RAPIDS    CLOUDY    18  13  80 SE6       30.18S WCI  10
MAHNOMEN       CLOUDY    19  14  79 S8        30.16F WCI   9
$$
MNZ006-009>011-018-025>026-190200-
   North Central Minnesota

CITY           SKY/WX    TMP DP  RH WIND       PRES   REMARKS
BAUDETTE       CLOUDY    19  14  81 S8        30.19S WCI   9
FLAG ISLAND    CLEAR     16  12  86 SE10      30.19S WCI   3
INTL FALLS     CLOUDY    20  16  84 E5        30.22S WCI  13
WASKISH        CLOUDY    18  16  93 CALM      30.20S
BIG FORK       CLOUDY    21  18  86 S7        30.20F WCI  13
LONGVILLE      CLOUDY    19  16  86 SE5       30.20F WCI  13
GRAND RAPIDS   CLOUDY    19  18  93 S8        30.20S WCI   9
CRANE LAKE     CLOUDY    19  18  93 CALM      30.25S
ORR            CLOUDY    19  16  86 CALM      30.19F
COOK           CLOUDY    19  18  93 CALM      30.21F
WALKER         CLOUDY    17  14  87 SE6       30.19S WCI   9
$$
MNZ012-019>021-037-190200-
   Northeast Minnesota

CITY           SKY/WX    TMP DP  RH WIND       PRES   REMARKS
DULUTH         CLOUDY    24  17  74 CALM      30.21S
ELY            CLOUDY    23  19  86 CALM      30.22S
HIBBING        CLOUDY    23  18  81 CALM      30.21F
EVELETH        CLOUDY    23  21  93 CALM      30.22S
DULUTH HARBOR  CLOUDY    27  21  80 CALM      30.27S
TWO HARBORS    CLOUDY    28  21  74 SE3       30.22S
SILVER BAY     CLOUDY    27  19  74 SE3       30.22S
GRAND MARAIS     N/A     17  12  80 NW6       30.30R WCI   9
G MARAIS ARPRT PTCLDY     3   0  85 N6        30.22S WCI  -8
$$
MNZ029>031-032-039>041-046>048-054>057-064-190200-
   West Central Minnesota

CITY           SKY/WX    TMP DP  RH WIND       PRES   REMARKS
FERGUS FALLS   CLOUDY    19  14  79 SE9       30.23R WCI   9
WHEATON        CLOUDY    18  16  93 SE12      30.21S WCI   5
MORRIS         CLOUDY    19  16  86 SE12      30.19F WCI   7
ALEXANDRIA     CLOUDY    19  13  77 SE8       30.20R WCI   9
ELBOW LAKE     CLOUDY    19  15  85 SE10      30.19S WCI   7
WADENA         CLOUDY    18  12  79 NW7       30.19S WCI   8
GLENWOOD       CLOUDY    18  16  93 SE7       30.21R WCI   8
APPLETON       CLOUDY    21  18  86 SE6       30.21S WCI  14
BENSON         CLOUDY    19  16  86 S10       30.22R WCI   8
ORTONVILLE     CLOUDY    19  18  93 SE12      30.19S WCI   7
MADISON        CLEAR     25  21  86 SE5       30.21S WCI  19
WILLMAR        CLOUDY    21  16  79 SE9       30.23S WCI  11
$$
MNZ033>034-036-042>043-049>051-058-059-190200-
   Central Minnesota

CITY           SKY/WX    TMP DP  RH WIND       PRES   REMARKS
ST CLOUD       CLOUDY    20  14  77 CALM      30.24S
SAUK CENTRE    CLOUDY    19  14  82 SE8       30.22R WCI   8
PAYNESVILLE    CLOUDY    17  14  88 E6        30.23S WCI   8
AITKIN         CLOUDY    23  18  80 SE3       30.21S
PINE RIVER     CLOUDY    18  16  93 SE9       30.24S WCI   6
BRAINERD       CLOUDY    19  15  84 VRB5      30.22S WCI  12
STAPLES        CLOUDY    18  12  79 SE6       30.21S WCI   9
LONG PRAIRIE   CLOUDY    19  14  79 SE6       30.22R WCI  11
LITTLE FALLS   MOCLDY    18  14  86 CALM      30.23S
LITCHFIELD     CLOUDY    19  18  93 SE7       30.24S WCI  10
BUFFALO        CLOUDY    20  15  79 CALM      30.26S
MAPLE LAKE     CLOUDY    18  15  90 CALM      30.25S
$$
MNZ037-044-045-052-053-190200-
   East Central Minnesota

CITY           SKY/WX    TMP DP  RH WIND       PRES   REMARKS
PRINCETON      CLOUDY    19  16  86 CALM      30.24F
MORA           CLOUDY    19  16  86 CALM      30.27S
CAMBRIDGE      CLOUDY    23  16  74 CALM      30.24F
RUSH CITY      CLOUDY    21  18  88 CALM      30.26S
MOOSE LAKE     CLOUDY    21  19  93 S3        30.22F
HINCKLEY       CLOUDY    21  19  93 CALM      30.25F
CLOQUET        CLOUDY    23  19  86 CALM      30.22S
MCGREGOR       CLOUDY    21  19  93 S5        30.23S WCI  15
$$
MNZ071>073-080-081-089-090-097-098-190200-
   Southwest Minnesota

CITY           SKY/WX    TMP DP  RH WIND       PRES   REMARKS
MONTEVIDEO     CLOUDY    19  19 100 S8        30.23S WCI   9
GRANITE FALLS  CLOUDY    21  18  86 E7        30.24R WCI  13
CANBY          CLOUDY    23  21  93 SE9       30.20S WCI  13
MARSHALL       CLOUDY    21  18  86 SE6       30.20S WCI  14
REDWOOD FALLS  CLOUDY    22  17  81 SE8       30.23S WCI  12
OLIVIA         CLOUDY    23  19  86 SE7       30.23S WCI  15
PIPESTONE      CLOUDY    25  23  93 CALM      30.16R FOG
WINDOM         CLOUDY    23  19  86 SE3       30.21R
WORTHINGTON    CLOUDY    25  21  86 SE5       30.20R WCI  19
JACKSON        CLOUDY    27  21  80 SE5       30.21R WCI  21
TRACY          CLOUDY    25  22  89 SE3       30.20S
SLAYTON        CLOUDY    25  24  95 CALM      30.19S
$$
MNZ065>067-074>077-082>085-091>093-190200-
   South Central Minnesota

CITY           SKY/WX    TMP DP  RH WIND       PRES   REMARKS
MANKATO        CLOUDY    21  14  73 SE5       30.25S WCI  15
NEW ULM        CLOUDY    21  18  86 SE5       30.24S WCI  15
ST JAMES       CLOUDY    25  19  80 SE5       30.25S WCI  19
FAIRMONT       CLOUDY    23  18  80 SE6       30.22S WCI  16
GLENCOE        CLEAR     19  16  90 CALM      30.25R
FARIBAULT      CLOUDY    19  16  86 SE3       30.25F
OWATONNA       MOCLDY    21  16  79 E3        30.24F
WASECA         CLOUDY    23  18  80 E5        30.26S WCI  17
ALBERT LEA     CLOUDY    21  19  93 E3        30.24S
$$
MNZ078>079-086>088-094>096-190200-
   Southeast Minnesota

CITY           SKY/WX    TMP DP  RH WIND       PRES   REMARKS
ROCHESTER      CLOUDY    21  15  78 CALM      30.24S
RED WING       CLOUDY    23  18  80 CALM      30.27S
STANTON        CLOUDY    22  16  76 E3        30.26R
DODGE CENTER   CLOUDY    19  16  86 CALM      30.24S
WINONA         CLOUDY    27  21  80 E5        30.29R WCI  21
AUSTIN         CLOUDY    19  16  86 CALM      30.24S
PRESTON        CLOUDY    21  16  82 CALM      30.24S
$$
ABBREVIATIONS USED IN REMARKS
   TC - TEMPERATURES IN CELSIUS
  WCI - WIND CHILL INDEX
   HX - HEAT INDEX
  VSB - VISIBILITY
$$


USA.gov is the U.S. government's official web portal to all federal, state and local government web resources and services.